EW6640 Weather Reports


Display with metric or nautical units.
time (UTC)temp
F
wind
direction
speed
MPH
gust
MPH
rain 1hr
in
rain 24hr
in
rain mn
in
humidity
%
barometer
mb
20260504170123 71 142 3.0 11.0 0.00 0.01 0.00 59 1007.6
20260504120131 52 194 0.0 4.0 0.00 0.01 0.00 75 1010.2
20260504081543 50 182 0.0 2.0 0.00 0.01 0.00 74 1011.1
20260504050017 48 284 0.0 0.0 0.00 0.01 0.00 87 1012.9
20260504044519 48 284 0.0 0.0 0.00 0.01 0.00 85 1013.0
20260504043016 48 284 0.0 0.0 0.00 0.01 0.00 85 1013.1
20260504041510 49 284 0.0 0.0 0.00 0.01 0.00 84 1013.3
20260504040008 49 284 0.0 0.0 0.00 0.01 0.01 84 1013.5
20260504034509 49 284 0.0 0.0 0.00 0.01 0.01 84 1013.6
20260504033006 49 284 0.0 0.0 0.00 0.01 0.01 84 1013.8
20260504031510 49 284 0.0 0.0 0.00 0.01 0.01 84 1014.0
20260504030003 49 284 0.0 0.0 0.00 0.01 0.01 85 1014.2
20260504024502 49 284 0.0 0.0 0.00 0.01 0.01 83 1014.4
20260504023004 49 284 0.0 0.0 0.00 0.01 0.01 83 1014.5
20260504021504 49 284 0.0 0.0 0.00 0.01 0.01 84 1014.4
20260504020003 48 284 0.0 0.0 0.00 0.01 0.01 85 1014.3
20260504014502 48 284 0.0 0.0 0.00 0.01 0.01 85 1014.3
20260504013100 48 284 0.0 0.0 0.00 0.01 0.01 85 1014.4
20260504011602 48 284 0.0 2.0 0.00 0.01 0.01 86 1014.3
20260504004559 48 304 0.0 1.0 0.00 0.01 0.01 87 1014.5
20260504003106 48 304 0.0 1.0 0.00 0.01 0.01 87 1014.4
20260504001602 48 304 0.0 0.0 0.00 0.01 0.01 88 1014.4
20260503234557 48 304 0.0 0.0 0.00 0.01 0.01 87 1014.6
20260503233058 48 304 0.0 0.0 0.00 0.01 0.01 88 1014.3
20260503231555 48 303 0.0 1.0 0.00 0.01 0.01 87 1014.3
20260503230109 48 303 0.0 2.0 0.00 0.01 0.01 88 1014.7
20260503224556 48 302 0.0 0.0 0.00 0.01 0.01 89 1014.9
20260503223102 47 302 0.0 0.0 0.01 0.01 0.01 90 1015.5
20260503221512 47 302 0.0 0.0 0.01 0.01 0.01 89 1015.9
20260503220035 48 302 0.0 0.0 0.01 0.01 0.01 87 1016.2
20260503214559 49 302 0.0 1.0 0.01 0.01 0.01 82 1016.8
20260503213057 50 161 3.0 6.0 0.00 0.00 0.00 75 1017.4
20260503211554 53 261 2.0 10.0 0.00 0.00 0.00 69 1017.2
20260503210054 56 161 2.0 13.0 0.00 0.00 0.00 55 1016.8
20260503204534 58 115 4.0 9.0 0.00 0.00 0.00 46 1016.3
20260503203028 58 233 1.0 4.0 0.00 0.00 0.00 44 1016.4
20260503201528 59 240 1.0 8.0 0.00 0.00 0.00 43 1016.7
20260503200028 60 333 2.0 6.0 0.00 0.00 0.00 43 1016.5
20260503194624 61 299 2.0 5.0 0.00 0.00 0.00 41 1016.5
20260503193012 61 271 1.0 7.0 0.00 0.00 0.00 44 1016.7
20260503191510 61 339 2.0 10.0 0.00 0.00 0.00 41 1016.7
20260503190015 62 150 2.0 10.0 0.00 0.00 0.00 40 1017.1
20260503184511 61 161 3.0 11.0 0.00 0.00 0.00 41 1017.4
20260503183006 61 114 3.0 11.0 0.00 0.00 0.00 42 1017.8
20260503181609 61 167 3.0 8.0 0.00 0.00 0.00 41 1017.8
20260503180100 60 169 3.0 8.0 0.00 0.00 0.00 43 1018.0
20260503174609 59 285 2.0 10.0 0.00 0.00 0.00 47 1018.3
20260503173058 59 348 2.0 10.0 0.00 0.00 0.00 44 1018.6
20260503171553 59 270 1.0 8.0 0.00 0.00 0.00 47 1018.7